User: anonymous   Login
Location: Lone Wolf Observatory
(41.0360°N, 89.2260°W)
Time: 13:49:03
(UTC-05:00)
Language:

Cosmos 1378 Rocket - Orbit

View from above orbital plane
View from above orbital plane
View from above satellite
View from above satellite

Ground track
Ground track

The orbit data is extracted from the following two-line orbital elements,

1 13272U 82059B   16182.87500547  .00000080  00000-0  66534-5 0  9990
2 13272  82.5120 109.2622 0018162 193.1611 166.9133 14.84532317839778
Epoch (UTC): 30 June 2016 21:00:00
Eccentricity: 0.0018162
inclination: 82.5120°
perigee height: 602 km
apogee height: 628 km
right ascension of ascending node: 109.2622°
argument of perigee: 193.1611°
revolutions per day: 14.84532317
mean anomaly at epoch: 166.9133°
orbit number at epoch: 83977

The dashed part of the orbit path shows where the satellite is in the earth's shadow,  

DLR